FENGYUN 1C DEB, 30765

Orbit data source: Space-Track

FENGYUN 1C DEB, 30765 is space debris in SSO originally from a launch on Mon, 10 May 1999 UTC launched from the Taiyaun Space Center, China (TSC). Fengyun 1C debris stems from the Chinese weather satellite Fengyun-1C, which was intentionally destroyed by a Chinese anti-satellite missile in 2007. This event dramatically increased the amount of space debris, with thousands of trackable fragments posing hazards to satellites and human spaceflight. The Fengyun 1C debris cloud has become a focal point in discussions about space sustainability and the need for international regulations to prevent the creation of new debris.

Loading next visibility...
Identifier
30765, 1999-025AUB
Orbit
SSO
Country
Flag of CNCN / PRC
Related business
Manufacturer
Unknown
Mission
Spacecraft
Bus & Motor
Unknown
Mass
Unknown
Launch date (UTC)
1999-05-10 (27 years ago)
Launch vehicle
Unknown
Launch site
Taiyaun Space Center, China (TSC)
Object type
Payload
Rocket body
Debris
Shape & HBR
Unknown shape, 0.1 m
Radar Cross Section
Medium (>0.1 m² and <1 m²)

Expand to show TLE details & history
Last TLE update: 20 hours ago

TLE from 20 hours ago
0 FENGYUN 1C DEB
1 30765U 99025AUB 26255.58383683  .00000804  00000-0  42428-3 0  9995
2 30765  98.7621 302.0808 0068580 147.7403  10.5460 14.15415133  6729
Epoch: 2026-09-12T14:00Z
TLE epoch observation values (Epoch: 2026-09-12T14:00:43.502Z)
Latitude
21.31564°
Longitude
-76.26164°
Altitude
794.84 km
Speed
7.483 km/s
True Right ascension
08h 22m 02s
True Declination
21° 12' 00"
Sunlit
Object was in daylight at epoch
Visualization orbit readout
Latitude
Unknown
Longitude
Unknown
Altitude
Unknown
Speed
Unknown
Apparent Right ascension
Unknown
Apparent Declination
Unknown
Sunlit
N/A
Visualization observer readout
Local Sidereal Time
02:32:51
Azimuth
Unknown
Elevation
Unknown
Doppler factor
Unknown
Orbital elements
Apogee altitude
887.556 km
Perigee altitude
788.579 km
Semi-major axis
7,216.204 km
Eccentricity
0.00686
Inclination
98.7621°
RAAN
302.0808°
Arg. of periapsis
147.7403°
True anomaly
10.69106°
Mean anomaly
10.546°
Eccentric anomaly
10.6184°
Mean motion
3.54063 °/min
Orbital period
101.68 mins
BSTAR
0.00042428
Loading maneuver chart data...
Computing Atmospheric mass density...

Documentation

Showing up to 5 results
|